View from above orbital plane
|
View from above satellite
|
Ground track
|
The orbit data is extracted from the following two-line orbital elements,
1 39679U 14021B 21015.51909503 -.00000076 00000-0 14617-4 0 9990
2 39679 51.6150 203.1036 0170553 320.9401 37.9354 15.06721425370991
Epoch (UTC): | 15 January 2021 12:27:29 |
Eccentricity: | 0.0170553 |
inclination: | 51.6150° |
perigee height: | 428 km |
apogee height: | 664 km |
right ascension of ascending node: | 203.1036° |
argument of perigee: | 320.9401° |
revolutions per day: | 15.06721425 |
mean anomaly at epoch: | 37.9354° |
orbit number at epoch: | 37099 |
The dashed part of the orbit path shows where the satellite is in the earth's shadow,
|
|